Location: Asheville, NC
(35.6000°N, 82.5500°W)
Time: 19:37:32
(UTC-04:00)

CUTE 1.7 + AOD 2 - Pass Details

Date: 17 March 2018
Orbit: 594 x 613 km, 97.5° (Epoch: 23 June)

Event Time Altitude Azimuth Distance (km) Brightness Sun altitude
Rises 20:07:44 0° 187° (S) 2,815 ? -6.6°
Reaches altitude 10° 20:10:02 10° 197° (SSW) 1,920 ? -7.0°
Maximum altitude 20:13:51 34° 263° (W) 983 ? -7.8°
Drops below altitude 10° 20:17:42 10° 329° (NNW) 1,941 ? -8.6°
Sets 20:20:02 0° 338° (NNW) 2,851 ? -9.1°
